DAL647 MROC-KPBI

Flight info

Callsign DAL647
Flight time 2h 26m
Altitude 40000
Route NANJO3R RADON UB767 PZA UZ751 SELEK UL345 IKBIX/N0478F410 Y183 PEAKY
Aircraft B772/H-SDE2E3FGHIJ5LORVWXY/LB1D1

Departure

Time 2026-05-07 17:09
Airport Juan Santamaría International Airport (MROC)

Arrival

Time 2026-05-07 19:36
Airport Palm Beach International Airport (KPBI)
Time Latitude Longitude Altitude Speed Heading
2026-05-07 17:01 9.99500 -84.21084 2989 ft 0 kts 161°
2026-05-07 17:05 9.98920 -84.22153 2931 ft 0 kts 69°
2026-05-07 17:08 9.99030 -84.21850 2946 ft 95 kts 69°
2026-05-07 17:09 9.99389 -84.20944 3092 ft 171 kts 70°
2026-05-07 17:09 9.99885 -84.19774 4137 ft 186 kts 57°
2026-05-07 17:09 10.00794 -84.18882 5330 ft 195 kts 33°
2026-05-07 17:09 10.02125 -84.18444 5633 ft 219 kts 355°
2026-05-07 17:10 10.03552 -84.19113 6099 ft 240 kts 319°
2026-05-07 17:10 10.04742 -84.20373 6670 ft 250 kts 316°
2026-05-07 17:10 10.05799 -84.21778 7318 ft 259 kts 294°
2026-05-07 17:10 10.06368 -84.23605 7546 ft 281 kts 287°
2026-05-07 17:11 10.06980 -84.25550 8174 ft 294 kts 289°
2026-05-07 17:11 10.07680 -84.27536 8944 ft 301 kts 290°
2026-05-07 17:11 10.08408 -84.29519 9849 ft 305 kts 290°
2026-05-07 17:11 10.09261 -84.31503 10447 ft 312 kts 303°
2026-05-07 17:12 10.10870 -84.33082 10619 ft 338 kts 332°
2026-05-07 17:12 10.13183 -84.33734 11017 ft 354 kts
2026-05-07 17:12 10.15591 -84.33236 11730 ft 354 kts 25°
2026-05-07 17:12 10.17844 -84.32166 12424 ft 362 kts 28°
2026-05-07 17:13 10.20119 -84.31023 13283 ft 367 kts 29°
2026-05-07 17:13 10.22427 -84.29860 14191 ft 372 kts 29°
2026-05-07 17:13 10.24770 -84.28695 15047 ft 375 kts 28°
2026-05-07 17:13 10.27130 -84.27540 15938 ft 378 kts 28°
2026-05-07 17:14 10.29487 -84.26399 16835 ft 382 kts 28°
2026-05-07 17:14 10.31902 -84.25238 17708 ft 387 kts 28°
2026-05-07 17:14 10.34358 -84.24063 18547 ft 391 kts 27°
2026-05-07 17:14 10.36837 -84.22880 19317 ft 396 kts 28°
2026-05-07 17:15 10.39342 -84.21686 20104 ft 399 kts 28°
2026-05-07 17:15 10.41870 -84.20481 20916 ft 403 kts 28°
2026-05-07 17:15 10.44417 -84.19267 21713 ft 406 kts 28°
2026-05-07 17:15 10.46989 -84.18040 22490 ft 411 kts 28°
2026-05-07 17:16 10.49593 -84.16798 23252 ft 415 kts 28°
2026-05-07 17:16 10.52226 -84.15541 23904 ft 420 kts 28°
2026-05-07 17:16 10.54884 -84.14272 24510 ft 425 kts 28°
2026-05-07 17:16 10.57581 -84.12983 25129 ft 429 kts 28°
2026-05-07 17:17 10.60264 -84.11701 25737 ft 433 kts 28°
2026-05-07 17:17 10.63003 -84.10392 26327 ft 437 kts 28°
2026-05-07 17:17 10.65771 -84.09070 26881 ft 442 kts 27°
2026-05-07 17:17 10.68582 -84.07750 27424 ft 447 kts 25°
2026-05-07 17:18 10.71510 -84.06636 27960 ft 453 kts 20°
2026-05-07 17:18 10.74581 -84.05831 28469 ft 458 kts 15°
2026-05-07 17:18 10.77721 -84.05137 28962 ft 462 kts 14°
2026-05-07 17:18 10.80850 -84.04453 29447 ft 466 kts 14°
2026-05-07 17:19 10.84037 -84.03753 29929 ft 470 kts 14°
2026-05-07 17:19 10.87246 -84.03040 30353 ft 473 kts 14°
2026-05-07 17:19 10.90466 -84.02315 30760 ft 475 kts 14°
2026-05-07 17:19 10.93713 -84.01578 31159 ft 477 kts 14°
2026-05-07 17:20 10.96923 -84.00846 31549 ft 480 kts 14°
2026-05-07 17:20 11.00188 -84.00099 31895 ft 482 kts 14°
2026-05-07 17:20 11.03475 -83.99346 32235 ft 484 kts 14°
2026-05-07 17:20 11.06781 -83.98589 32552 ft 487 kts 14°
2026-05-07 17:21 11.10097 -83.97830 32857 ft 489 kts 14°
2026-05-07 17:21 11.13420 -83.97070 33142 ft 490 kts 14°
2026-05-07 17:21 11.16761 -83.96305 33409 ft 492 kts 14°
2026-05-07 17:21 11.20065 -83.95549 33774 ft 492 kts 14°
2026-05-07 17:22 11.23394 -83.94787 34165 ft 490 kts 14°
2026-05-07 17:22 11.26714 -83.94028 34585 ft 486 kts 14°
2026-05-07 17:22 11.30010 -83.93275 35071 ft 481 kts 14°
2026-05-07 17:22 11.33267 -83.92529 35512 ft 478 kts 14°
2026-05-07 17:23 11.36468 -83.91796 36005 ft 474 kts 13°
2026-05-07 17:23 11.39672 -83.91062 36475 ft 471 kts 12°
2026-05-07 17:23 11.42879 -83.90328 36760 ft 472 kts 12°
2026-05-07 17:23 11.46096 -83.89590 37021 ft 474 kts 12°
2026-05-07 17:24 11.49327 -83.88850 37332 ft 474 kts 12°
2026-05-07 17:24 11.52546 -83.88111 37654 ft 474 kts 12°
2026-05-07 17:24 11.55724 -83.87381 38016 ft 473 kts 11°
2026-05-07 17:24 11.58935 -83.86644 38409 ft 471 kts 11°
2026-05-07 17:25 11.62128 -83.85910 38754 ft 470 kts 11°
2026-05-07 17:25 11.65334 -83.85174 38917 ft 473 kts 11°
2026-05-07 17:25 11.68543 -83.84437 39139 ft 473 kts 11°
2026-05-07 17:25 11.71754 -83.83699 39427 ft 472 kts 11°
2026-05-07 17:26 11.74953 -83.82963 39718 ft 470 kts 11°
2026-05-07 17:26 11.78149 -83.82228 39892 ft 472 kts 11°
2026-05-07 17:26 11.84586 -83.80747 39966 ft 473 kts 11°
2026-05-07 17:27 11.90980 -83.79271 39970 ft 469 kts 11°
2026-05-07 17:27 11.97346 -83.77803 39995 ft 468 kts 11°
2026-05-07 17:28 12.03728 -83.76422 39999 ft 468 kts
2026-05-07 17:28 12.10116 -83.75271 39995 ft 469 kts
2026-05-07 17:29 12.16548 -83.74128 39988 ft 470 kts
2026-05-07 17:29 12.22991 -83.72948 39986 ft 470 kts
2026-05-07 17:30 12.29434 -83.71747 39977 ft 470 kts
2026-05-07 17:30 12.35882 -83.70540 39978 ft 470 kts
2026-05-07 17:31 12.42322 -83.69335 39977 ft 470 kts
2026-05-07 17:31 12.48752 -83.68132 39978 ft 469 kts
2026-05-07 17:32 12.55138 -83.66938 39968 ft 469 kts
2026-05-07 17:32 12.60516 -83.65932 39970 ft 469 kts
2026-05-07 17:33 12.67973 -83.64536 39973 ft 469 kts
2026-05-07 17:33 12.74384 -83.63335 39972 ft 468 kts
2026-05-07 17:34 12.80781 -83.62135 39971 ft 466 kts
2026-05-07 17:34 12.87164 -83.60939 39971 ft 466 kts
2026-05-07 17:35 12.93505 -83.59750 39968 ft 466 kts
2026-05-07 17:35 12.99901 -83.58549 39971 ft 467 kts
2026-05-07 17:36 13.06299 -83.57347 39969 ft 467 kts
2026-05-07 17:36 13.12703 -83.56144 39958 ft 467 kts
2026-05-07 17:37 13.19098 -83.54940 39960 ft 467 kts
2026-05-07 17:37 13.25446 -83.53747 39965 ft 466 kts
2026-05-07 17:38 13.31831 -83.52545 39965 ft 466 kts
2026-05-07 17:38 13.38217 -83.51342 39966 ft 466 kts
2026-05-07 17:39 13.43531 -83.50340 39951 ft 467 kts
2026-05-07 17:39 13.50989 -83.48934 39954 ft 469 kts
2026-05-07 17:40 13.56382 -83.47917 39950 ft 470 kts
2026-05-07 17:40 13.62774 -83.46711 39946 ft 469 kts
2026-05-07 17:41 13.69201 -83.45496 39951 ft 469 kts
2026-05-07 17:41 13.75613 -83.44283 39950 ft 468 kts
2026-05-07 17:42 13.82029 -83.43069 39963 ft 468 kts
2026-05-07 17:42 13.88451 -83.41853 39959 ft 469 kts
2026-05-07 17:43 13.94844 -83.40640 39966 ft 470 kts
2026-05-07 17:43 14.01279 -83.39418 39966 ft 470 kts
2026-05-07 17:44 14.07717 -83.38238 39948 ft 469 kts
2026-05-07 17:44 14.14173 -83.37247 39951 ft 469 kts
2026-05-07 17:45 14.20635 -83.36285 39955 ft 469 kts
2026-05-07 17:45 14.27102 -83.35297 39958 ft 469 kts
2026-05-07 17:46 14.33552 -83.34293 39955 ft 469 kts
2026-05-07 17:46 14.39969 -83.33288 39951 ft 469 kts
2026-05-07 17:47 14.46427 -83.32276 39959 ft 469 kts
2026-05-07 17:47 14.52882 -83.31265 39960 ft 469 kts
2026-05-07 17:48 14.59352 -83.30252 39980 ft 469 kts
2026-05-07 17:48 14.65764 -83.29247 39975 ft 469 kts
2026-05-07 17:49 14.72226 -83.28233 39971 ft 469 kts
2026-05-07 17:49 14.78678 -83.27221 39962 ft 469 kts
2026-05-07 17:50 14.85131 -83.26208 39970 ft 469 kts
2026-05-07 17:50 14.91582 -83.25194 39980 ft 469 kts
2026-05-07 17:51 14.98033 -83.24180 39993 ft 468 kts
2026-05-07 17:51 15.04436 -83.23172 39989 ft 469 kts
2026-05-07 17:52 15.10891 -83.22156 39977 ft 469 kts
2026-05-07 17:52 15.17346 -83.21140 39995 ft 469 kts
2026-05-07 17:53 15.23813 -83.20121 39985 ft 469 kts
2026-05-07 17:53 15.30232 -83.19109 39989 ft 469 kts
2026-05-07 17:54 15.36708 -83.18087 40003 ft 470 kts
2026-05-07 17:54 15.43182 -83.17064 40003 ft 470 kts
2026-05-07 17:55 15.49613 -83.16048 39987 ft 470 kts
2026-05-07 17:55 15.56071 -83.15027 39988 ft 469 kts
2026-05-07 17:56 15.62513 -83.14008 39993 ft 468 kts
2026-05-07 17:56 15.68955 -83.12988 39996 ft 468 kts
2026-05-07 17:57 15.74315 -83.12139 39989 ft 468 kts
2026-05-07 17:57 15.81807 -83.10951 40003 ft 468 kts
2026-05-07 17:58 15.88266 -83.09928 39993 ft 469 kts
2026-05-07 17:58 15.94714 -83.08904 39991 ft 469 kts
2026-05-07 17:59 16.01172 -83.07878 39995 ft 469 kts
2026-05-07 17:59 16.07631 -83.06852 40012 ft 469 kts
2026-05-07 18:00 16.14057 -83.05829 39995 ft 469 kts
2026-05-07 18:00 16.20507 -83.04803 40008 ft 468 kts
2026-05-07 18:01 16.26966 -83.03775 39989 ft 469 kts
2026-05-07 18:01 16.33390 -83.02752 39991 ft 469 kts
2026-05-07 18:02 16.43098 -83.01203 39993 ft 470 kts
2026-05-07 18:03 16.49568 -83.00171 39993 ft 470 kts
2026-05-07 18:03 16.56029 -82.99139 39999 ft 470 kts
2026-05-07 18:04 16.62452 -82.98103 40007 ft 469 kts
2026-05-07 18:04 16.68915 -82.97061 40003 ft 470 kts
2026-05-07 18:05 16.75386 -82.96024 39993 ft 470 kts
2026-05-07 18:05 16.81859 -82.94983 39999 ft 470 kts
2026-05-07 18:06 16.88295 -82.93951 40000 ft 471 kts
2026-05-07 18:06 16.94780 -82.92912 40004 ft 470 kts
2026-05-07 18:07 17.01217 -82.91879 40000 ft 470 kts
2026-05-07 18:07 17.07704 -82.90839 40002 ft 471 kts
2026-05-07 18:08 17.14183 -82.89802 40004 ft 471 kts
2026-05-07 18:08 17.20661 -82.88776 40003 ft 471 kts
2026-05-07 18:09 17.27144 -82.87737 40007 ft 470 kts
2026-05-07 18:09 17.33620 -82.86692 40009 ft 471 kts
2026-05-07 18:10 17.40093 -82.85648 40004 ft 471 kts
2026-05-07 18:10 17.46532 -82.84609 40006 ft 471 kts
2026-05-07 18:11 17.53015 -82.83563 40003 ft 471 kts
2026-05-07 18:11 17.59499 -82.82516 40008 ft 471 kts
2026-05-07 18:12 17.65977 -82.81469 40011 ft 471 kts
2026-05-07 18:12 17.72472 -82.80419 40009 ft 471 kts
2026-05-07 18:13 17.78924 -82.79374 40010 ft 471 kts
2026-05-07 18:13 17.85408 -82.78324 40011 ft 471 kts
2026-05-07 18:14 17.91888 -82.77274 40015 ft 471 kts
2026-05-07 18:14 17.98372 -82.76222 40010 ft 470 kts
2026-05-07 18:15 18.04846 -82.75171 40013 ft 470 kts
2026-05-07 18:15 18.11311 -82.74121 40013 ft 470 kts
2026-05-07 18:16 18.17747 -82.73075 40015 ft 470 kts
2026-05-07 18:16 18.24221 -82.72021 40014 ft 470 kts
2026-05-07 18:17 18.30700 -82.70966 40011 ft 470 kts
2026-05-07 18:17 18.37123 -82.69919 40013 ft 470 kts
2026-05-07 18:18 18.43593 -82.68864 40019 ft 470 kts
2026-05-07 18:18 18.50056 -82.67810 40015 ft 470 kts
2026-05-07 18:19 18.56534 -82.66752 40014 ft 470 kts
2026-05-07 18:19 18.62993 -82.65696 40017 ft 470 kts
2026-05-07 18:20 18.69404 -82.64647 40018 ft 469 kts
2026-05-07 18:20 18.75863 -82.63590 40016 ft 469 kts
2026-05-07 18:21 18.82325 -82.62531 40016 ft 469 kts
2026-05-07 18:21 18.88775 -82.61473 40017 ft 469 kts
2026-05-07 18:22 18.95182 -82.60422 40016 ft 469 kts
2026-05-07 18:22 19.01637 -82.59362 40021 ft 469 kts
2026-05-07 18:23 19.08081 -82.58303 40017 ft 468 kts
2026-05-07 18:23 19.14520 -82.57244 40019 ft 468 kts
2026-05-07 18:24 19.20959 -82.56184 40018 ft 468 kts
2026-05-07 18:24 19.27401 -82.55122 40024 ft 467 kts
2026-05-07 18:25 19.33786 -82.54070 40029 ft 468 kts
2026-05-07 18:25 19.40219 -82.53008 40025 ft 468 kts
2026-05-07 18:26 19.46661 -82.51944 40023 ft 468 kts
2026-05-07 18:26 19.52017 -82.51058 40024 ft 468 kts
2026-05-07 18:27 19.58465 -82.49992 40024 ft 468 kts
2026-05-07 18:27 19.64857 -82.48933 40029 ft 468 kts
2026-05-07 18:28 19.71304 -82.47865 40024 ft 468 kts
2026-05-07 18:28 19.77741 -82.46797 40028 ft 468 kts
2026-05-07 18:29 19.84186 -82.45726 40027 ft 468 kts
2026-05-07 18:29 19.90628 -82.44654 40027 ft 468 kts
2026-05-07 18:30 19.97064 -82.43582 40025 ft 468 kts
2026-05-07 18:30 20.03467 -82.42512 40027 ft 469 kts
2026-05-07 18:31 20.09910 -82.41386 40030 ft 469 kts 10°
2026-05-07 18:31 20.16220 -82.39571 40038 ft 470 kts 14°
2026-05-07 18:32 20.22520 -82.37628 40032 ft 470 kts 14°
2026-05-07 18:32 20.28783 -82.35723 40028 ft 469 kts 13°
2026-05-07 18:33 20.35074 -82.33827 40030 ft 469 kts 13°
2026-05-07 18:33 20.41322 -82.31942 40029 ft 469 kts 13°
2026-05-07 18:34 20.47612 -82.30045 40031 ft 469 kts 13°
2026-05-07 18:34 20.53904 -82.28167 40030 ft 469 kts 13°
2026-05-07 18:35 20.60206 -82.26292 40029 ft 469 kts 13°
2026-05-07 18:35 20.66467 -82.24421 40032 ft 470 kts 13°
2026-05-07 18:36 20.72766 -82.22533 40035 ft 470 kts 13°
2026-05-07 18:36 20.79069 -82.20642 40030 ft 470 kts 13°
2026-05-07 18:37 20.85370 -82.18749 40029 ft 470 kts 13°
2026-05-07 18:37 20.91669 -82.16855 40033 ft 470 kts 13°
2026-05-07 18:38 20.97935 -82.14970 40032 ft 470 kts 13°
2026-05-07 18:38 21.04239 -82.13072 40037 ft 470 kts 13°
2026-05-07 18:39 21.10544 -82.11172 40038 ft 471 kts 13°
2026-05-07 18:39 21.16854 -82.09268 40033 ft 471 kts 13°
2026-05-07 18:40 21.23170 -82.07361 40035 ft 471 kts 13°
2026-05-07 18:40 21.29435 -82.05468 40036 ft 471 kts 13°
2026-05-07 18:41 21.35752 -82.03557 40036 ft 471 kts 13°
2026-05-07 18:41 21.42058 -82.01648 40038 ft 471 kts 13°
2026-05-07 18:42 21.48365 -81.99737 40035 ft 471 kts 13°
2026-05-07 18:42 21.54671 -81.97824 40035 ft 471 kts 13°
2026-05-07 18:43 21.60949 -81.95918 40038 ft 471 kts 13°
2026-05-07 18:43 21.67261 -81.94000 40038 ft 471 kts 13°
2026-05-07 18:44 21.73578 -81.92079 40035 ft 472 kts 13°
2026-05-07 18:44 21.79863 -81.90166 40039 ft 472 kts 13°
2026-05-07 18:45 21.86185 -81.88239 40035 ft 472 kts 13°
2026-05-07 18:45 21.92512 -81.86309 40038 ft 472 kts 13°
2026-05-07 18:46 21.98842 -81.84376 40035 ft 473 kts 13°
2026-05-07 18:46 22.05178 -81.82440 40038 ft 473 kts 13°
2026-05-07 18:47 22.11510 -81.80502 40034 ft 473 kts 13°
2026-05-07 18:47 22.17803 -81.78574 40033 ft 473 kts 13°
2026-05-07 18:48 22.24146 -81.76628 40030 ft 473 kts 13°
2026-05-07 18:48 22.30488 -81.74679 40026 ft 473 kts 13°
2026-05-07 18:49 22.36827 -81.72732 40029 ft 474 kts 13°
2026-05-07 18:49 22.43150 -81.70833 40030 ft 474 kts 12°
2026-05-07 18:50 22.49512 -81.68948 40024 ft 474 kts 12°
2026-05-07 18:50 22.55879 -81.67051 40025 ft 474 kts 12°
2026-05-07 18:51 22.62238 -81.65148 40026 ft 474 kts 13°
2026-05-07 18:51 22.68568 -81.63249 40025 ft 474 kts 13°
2026-05-07 18:52 22.74925 -81.61340 40022 ft 473 kts 13°
2026-05-07 18:52 22.81271 -81.59433 40021 ft 473 kts 13°
2026-05-07 18:53 22.87617 -81.57524 40026 ft 473 kts 13°
2026-05-07 18:53 22.93924 -81.55625 40043 ft 473 kts 12°
2026-05-07 18:54 23.00273 -81.53710 40045 ft 474 kts 12°
2026-05-07 18:54 23.06630 -81.51791 40052 ft 474 kts 12°
2026-05-07 18:55 23.12996 -81.49863 40046 ft 475 kts 12°
2026-05-07 18:55 23.19367 -81.47938 40044 ft 475 kts 12°
2026-05-07 18:56 23.25698 -81.46024 40037 ft 475 kts 12°
2026-05-07 18:56 23.32079 -81.44091 40028 ft 475 kts 12°
2026-05-07 18:57 23.38453 -81.42153 40033 ft 475 kts 12°
2026-05-07 18:57 23.44780 -81.40225 40045 ft 475 kts 12°
2026-05-07 18:58 23.51158 -81.38280 40044 ft 475 kts 12°
2026-05-07 18:58 23.57532 -81.36334 40033 ft 475 kts 12°
2026-05-07 18:59 23.63907 -81.34385 40035 ft 476 kts 12°
2026-05-07 18:59 23.70293 -81.32431 40036 ft 476 kts 12°
2026-05-07 19:00 23.76640 -81.30487 40048 ft 476 kts 12°
2026-05-07 19:00 23.83023 -81.28528 40065 ft 476 kts 12°
2026-05-07 19:01 23.89408 -81.26566 40047 ft 476 kts 12°
2026-05-07 19:01 23.95797 -81.24600 40043 ft 476 kts 12°
2026-05-07 19:02 24.02216 -81.22899 40050 ft 473 kts
2026-05-07 19:02 24.08707 -81.21987 40042 ft 472 kts
2026-05-07 19:03 24.15231 -81.21116 40054 ft 472 kts
2026-05-07 19:03 24.21763 -81.20199 40046 ft 473 kts
2026-05-07 19:04 24.28297 -81.19256 40047 ft 473 kts
2026-05-07 19:04 24.34787 -81.18315 40050 ft 473 kts
2026-05-07 19:05 24.41334 -81.17367 40051 ft 474 kts
2026-05-07 19:05 24.47870 -81.16419 40052 ft 474 kts
2026-05-07 19:06 24.54409 -81.15454 40050 ft 474 kts
2026-05-07 19:06 24.60688 -81.13115 40058 ft 482 kts 23°
2026-05-07 19:06 24.63544 -81.11245 40054 ft 486 kts 32°
2026-05-07 19:07 24.68958 -81.06746 40057 ft 488 kts 34°
2026-05-07 19:07 24.74334 -81.02168 40066 ft 489 kts 34°
2026-05-07 19:08 24.79747 -80.97610 40057 ft 489 kts 33°
2026-05-07 19:08 24.85174 -80.93083 40055 ft 490 kts 33°
2026-05-07 19:09 24.90610 -80.88556 40056 ft 490 kts 33°
2026-05-07 19:09 24.96042 -80.84028 40050 ft 489 kts 32°
2026-05-07 19:10 25.01449 -80.79560 40042 ft 488 kts 32°
2026-05-07 19:10 25.06879 -80.75039 40051 ft 489 kts 32°
2026-05-07 19:11 25.12310 -80.70487 40045 ft 489 kts 33°
2026-05-07 19:11 25.17732 -80.65935 40045 ft 490 kts 33°
2026-05-07 19:12 25.23129 -80.61403 40045 ft 490 kts 33°
2026-05-07 19:12 25.28563 -80.56836 40044 ft 491 kts 33°
2026-05-07 19:13 25.31279 -80.54552 39902 ft 488 kts 33°
2026-05-07 19:13 25.33957 -80.52296 39630 ft 480 kts 32°
2026-05-07 19:13 25.36632 -80.50043 38920 ft 483 kts 32°
2026-05-07 19:13 25.39314 -80.47786 38031 ft 487 kts 32°
2026-05-07 19:14 25.42023 -80.45504 37126 ft 491 kts 32°
2026-05-07 19:14 25.44749 -80.43204 36264 ft 494 kts 32°
2026-05-07 19:14 25.47497 -80.40882 35428 ft 496 kts 33°
2026-05-07 19:14 25.50211 -80.38588 34646 ft 497 kts 33°
2026-05-07 19:15 25.52957 -80.36263 34038 ft 494 kts 33°
2026-05-07 19:15 25.55672 -80.33962 33503 ft 488 kts 33°
2026-05-07 19:15 25.58352 -80.31692 33024 ft 482 kts 33°
2026-05-07 19:15 25.61004 -80.29446 32480 ft 477 kts 33°
2026-05-07 19:16 25.62753 -80.27966 32096 ft 475 kts 33°
2026-05-07 19:16 25.65378 -80.25744 31478 ft 473 kts 33°
2026-05-07 19:16 25.68847 -80.22806 30702 ft 470 kts 33°
2026-05-07 19:16 25.70573 -80.21342 30363 ft 468 kts 33°
2026-05-07 19:17 25.73177 -80.19132 29824 ft 463 kts 33°
2026-05-07 19:17 25.75698 -80.16991 29266 ft 459 kts 33°
2026-05-07 19:17 25.78225 -80.14843 28740 ft 454 kts 33°
2026-05-07 19:17 25.80721 -80.12720 28219 ft 450 kts 33°
2026-05-07 19:18 25.83193 -80.10618 27690 ft 446 kts 33°
2026-05-07 19:18 25.85647 -80.08530 27156 ft 443 kts 33°
2026-05-07 19:18 25.88088 -80.06452 26633 ft 440 kts 33°
2026-05-07 19:18 25.90508 -80.04391 26110 ft 437 kts 33°
2026-05-07 19:19 25.92917 -80.02338 25603 ft 434 kts 33°
2026-05-07 19:19 25.95315 -80.00293 25093 ft 432 kts 33°
2026-05-07 19:19 25.97696 -79.98261 24610 ft 430 kts 33°
2026-05-07 19:19 26.00056 -79.96245 24166 ft 427 kts 33°
2026-05-07 19:20 26.02380 -79.94259 23737 ft 424 kts 33°
2026-05-07 19:20 26.04714 -79.92264 23254 ft 421 kts 33°
2026-05-07 19:20 26.07021 -79.90290 22791 ft 417 kts 34°
2026-05-07 19:20 26.09318 -79.88324 22339 ft 413 kts 34°
2026-05-07 19:21 26.11586 -79.86381 21915 ft 409 kts 34°
2026-05-07 19:21 26.13832 -79.84457 21486 ft 405 kts 34°
2026-05-07 19:21 26.16054 -79.82552 21069 ft 402 kts 34°
2026-05-07 19:21 26.18236 -79.80680 20652 ft 399 kts 34°
2026-05-07 19:22 26.20428 -79.78797 20263 ft 395 kts 34°
2026-05-07 19:22 26.22597 -79.76932 19856 ft 393 kts 34°
2026-05-07 19:22 26.24755 -79.75075 19462 ft 390 kts 34°
2026-05-07 19:22 26.26896 -79.73231 19083 ft 387 kts 34°
2026-05-07 19:23 26.29017 -79.71401 18720 ft 384 kts 34°
2026-05-07 19:23 26.31124 -79.69582 18351 ft 381 kts 35°
2026-05-07 19:23 26.33213 -79.67774 17950 ft 379 kts 34°
2026-05-07 19:23 26.35295 -79.66013 17513 ft 370 kts 31°
2026-05-07 19:24 26.37627 -79.64856 16916 ft 367 kts
2026-05-07 19:24 26.40153 -79.64785 16464 ft 362 kts 348°
2026-05-07 19:24 26.42494 -79.65639 16085 ft 357 kts 331°
2026-05-07 19:24 26.44556 -79.67150 15680 ft 354 kts 319°
2026-05-07 19:25 26.46143 -79.69234 15220 ft 353 kts 302°
2026-05-07 19:25 26.47381 -79.71570 15030 ft 344 kts 300°
2026-05-07 19:25 26.48587 -79.73832 14967 ft 333 kts 301°
2026-05-07 19:25 26.49777 -79.76001 14903 ft 323 kts 301°
2026-05-07 19:26 26.50872 -79.78146 14838 ft 312 kts 297°
2026-05-07 19:26 26.51803 -79.80294 14761 ft 303 kts 295°
2026-05-07 19:26 26.52684 -79.82398 14677 ft 295 kts 294°
2026-05-07 19:26 26.53544 -79.84457 14446 ft 290 kts 295°
2026-05-07 19:27 26.54383 -79.86431 13903 ft 280 kts 295°
2026-05-07 19:27 26.55209 -79.88354 13274 ft 269 kts 295°
2026-05-07 19:27 26.56005 -79.90205 12664 ft 260 kts 294°
2026-05-07 19:27 26.56777 -79.91999 12077 ft 252 kts 294°
2026-05-07 19:28 26.57528 -79.93737 11490 ft 245 kts 295°
2026-05-07 19:28 26.58274 -79.95434 10918 ft 240 kts 291°
2026-05-07 19:28 26.58623 -79.97221 10338 ft 235 kts 271°
2026-05-07 19:28 26.58662 -79.99029 9668 ft 237 kts 270°
2026-05-07 19:29 26.58725 -80.00876 8918 ft 239 kts 271°
2026-05-07 19:29 26.58799 -80.02742 8203 ft 240 kts 271°
2026-05-07 19:29 26.59006 -80.04595 7483 ft 241 kts 284°
2026-05-07 19:29 26.59568 -80.06372 6816 ft 242 kts 290°
2026-05-07 19:30 26.60201 -80.08118 6108 ft 242 kts 290°
2026-05-07 19:30 26.60823 -80.09846 5390 ft 241 kts 290°
2026-05-07 19:30 26.61442 -80.11590 4660 ft 240 kts 290°
2026-05-07 19:30 26.62049 -80.13316 3931 ft 238 kts 290°
2026-05-07 19:31 26.62643 -80.15024 3422 ft 227 kts 289°
2026-05-07 19:31 26.63181 -80.16591 3209 ft 205 kts 289°
2026-05-07 19:31 26.63671 -80.18030 3024 ft 196 kts 285°
2026-05-07 19:31 26.64142 -80.19464 3002 ft 192 kts 287°
2026-05-07 19:32 26.64589 -80.20821 3002 ft 183 kts 286°
2026-05-07 19:32 26.65037 -80.22157 3014 ft 186 kts 290°
2026-05-07 19:32 26.65738 -80.23329 2980 ft 184 kts 321°
2026-05-07 19:32 26.66964 -80.23846 2964 ft 193 kts 359°
2026-05-07 19:33 26.68226 -80.23390 2909 ft 203 kts 34°
2026-05-07 19:33 26.69102 -80.22131 2376 ft 216 kts 71°
2026-05-07 19:33 26.69172 -80.20482 1949 ft 212 kts 106°
2026-05-07 19:33 26.68783 -80.18933 1600 ft 200 kts 97°
2026-05-07 19:34 26.68624 -80.17427 1348 ft 192 kts 95°
2026-05-07 19:34 26.68550 -80.16011 1097 ft 172 kts 92°
2026-05-07 19:34 26.68499 -80.14745 831 ft 155 kts 92°
2026-05-07 19:34 26.68445 -80.13540 638 ft 158 kts 91°
2026-05-07 19:35 26.68400 -80.12392 380 ft 136 kts 89°
2026-05-07 19:35 26.68344 -80.11369 204 ft 127 kts 90°
2026-05-07 19:35 26.68299 -80.10397 66 ft 123 kts 89°
2026-05-07 19:35 26.68258 -80.09573 36 ft 85 kts 92°
2026-05-07 19:36 26.68243 -80.09122 31 ft 32 kts 92°
2026-05-07 19:36 26.68239 -80.09023 30 ft 12 kts 91°
2026-05-07 19:36 26.68273 -80.08864 29 ft 23 kts 34°
2026-05-07 19:36 26.68425 -80.08864 30 ft 23 kts 316°
2026-05-07 19:37 26.68523 -80.08993 31 ft 23 kts 324°
2026-05-07 19:37 26.68638 -80.09116 31 ft 23 kts 313°
2026-05-07 19:37 26.68711 -80.09193 32 ft 0 kts 320°
2026-05-07 19:40 26.58646 -79.98436 10000 ft 236 kts 270°
2026-05-07 19:40 26.68291 -80.10152 40 ft 115 kts 89°
2026-05-07 19:41 26.68253 -80.09418 32 ft 71 kts 92°
2026-05-07 19:41 26.68308 -80.10617 96 ft 126 kts 90°
2026-05-07 19:41 26.68271 -80.09731 38 ft 97 kts 99°